Location: Newark
(25.6108°S, 54.5803°W)
Time: 08:14:47
(UTC+00:00)

Tiros 1 - Pass Details

Date: 01 November 2020
Orbit: 630 x 664 km, 48.4° (Epoch: 29 November)

Event Time Altitude Azimuth Distance (km) Brightness Sun altitude
Rises 16:06:02 0° 309° (NW) 2,947 10.7 75.0°
Reaches altitude 10° 16:08:22 10° 306° (NW) 2,048 10.1 74.6°
Maximum altitude 16:13:04 66° 223° (SW) 719 8.8 73.8°
Drops below altitude 10° 16:17:52 10° 141° (SE) 2,087 9.7 73.0°
Sets 16:20:15 0° 137° (SE) 3,008 10.4 72.5°
